Weather History for Artesia, NM

Change the Weather History Date:

Tuesday, April 29, 2014

  Actual Average Record
Temperature  
Mean Temperature 54 °F -  
Max Temperature 64 °F 81 °F 98 °F (1992)
Min Temperature 44 °F 46 °F 32 °F (1968)
Degree Days  
Heating Degree Days 11    
Growing Degree Days 4 (Base 50)    
Moisture  
Dew Point 9 °F    
Average Humidity 16    
Maximum Humidity 25    
Minimum Humidity 10    
Precipitation  
Precipitation 0.00 in - - ()
Sea Level Pressure  
Sea Level Pressure 30.05 in    
Wind  
Wind Speed 16 mph (North)    
Max Wind Speed 31 mph    
Max Gust Speed 41 mph    
Visibility 10 miles    
Events      
Averages and records for this station are not official NWS values.
T = Trace of Precipitation, MM = Missing Value Source: NWS Daily Summary

Daily Weather History Graph

Daily Weather History Graph

Search for Another Location

Airport:

Trip Planner

Search our weather history database for the weather conditions in past years. The results will help you decide how hot, cold, wet, or windy it might be!

Date:

Astronomy

Apr. 29, 2014 Rise Set
Actual Time 6:12 AM MDT 7:38 PM MDT
Civil Twilight 5:46 AM MDT 8:04 PM MDT
Nautical Twilight 5:15 AM MDT 8:35 PM MDT
Astronomical Twilight 4:42 AM MDT 9:08 PM MDT
Moon 6:32 AM MDT (4/29) 8:19 PM MDT (4/29)
Length of Visible Light 14h 18m
Length of Day
13h 25m
New Moon, 0% of the Moon is Illuminated
Apr 29
New Moon
May 6
First Quarter
May 14
Full
May 21
Last Quarter
May 28
New

Hourly Weather History & Observations

Time (MDT) Temp. Windchill Dew Point Humidity Pressure Visibility Wind Dir Wind Speed Gust Speed Precip Events Conditions
12:15 AM 57.2 °F - 1.4 °F 10% 29.93 in 10.0 mi North 23.0 mph 29.9 mph N/A   Clear
12:35 AM 57.2 °F - -0.4 °F 10% 29.93 in 10.0 mi North 26.5 mph 35.7 mph N/A   Clear
12:55 AM 57.2 °F - -0.4 °F 10% 29.94 in 10.0 mi North 28.8 mph 41.4 mph N/A   Clear
1:15 AM 57.2 °F - -0.4 °F 10% 29.96 in 10.0 mi North 25.3 mph 39.1 mph N/A   Clear
1:35 AM 57.2 °F - -0.4 °F 10% 29.96 in 10.0 mi NNW 27.6 mph 33.4 mph N/A   Clear
1:55 AM 55.4 °F - 1.4 °F 11% 29.95 in 10.0 mi NNW 31.1 mph 38.0 mph N/A   Clear
2:15 AM 55.4 °F - 1.4 °F 11% 29.94 in 10.0 mi NNW 28.8 mph 38.0 mph N/A   Clear
2:35 AM 55.4 °F - 1.4 °F 11% 29.94 in 10.0 mi NNW 31.1 mph 38.0 mph N/A   Clear
2:55 AM 53.6 °F - 1.4 °F 12% 29.95 in 10.0 mi NNW 29.9 mph 39.1 mph N/A   Clear
3:15 AM 53.6 °F - 1.4 °F 12% 29.96 in 10.0 mi NNW 21.9 mph 33.4 mph N/A   Clear
3:35 AM 51.8 °F - 3.2 °F 14% 29.98 in 10.0 mi North 12.7 mph 18.4 mph N/A   Clear
3:55 AM 51.8 °F - 1.4 °F 13% 29.99 in 10.0 mi NNW 15.0 mph 20.7 mph N/A   Clear
4:15 AM 50.0 °F - 3.2 °F 15% 30.01 in 10.0 mi NNW 11.5 mph 17.3 mph N/A   Clear
4:35 AM 50.0 °F - 1.4 °F 14% 30.01 in 10.0 mi NNW 12.7 mph - N/A   Clear
4:55 AM 50.0 °F - 1.4 °F 14% 30.02 in 10.0 mi NNW 12.7 mph - N/A   Clear
5:15 AM 48.2 °F - 1.4 °F 15% 30.03 in 10.0 mi NNW 9.2 mph - N/A   Clear
5:35 AM 48.2 °F - 1.4 °F 15% 30.03 in 10.0 mi NW 12.7 mph - N/A   Clear
5:55 AM 46.4 °F 41.9 °F 3.2 °F 17% 30.04 in 10.0 mi North 9.2 mph - N/A   Clear
6:15 AM 44.6 °F 39.2 °F 3.2 °F 18% 30.04 in 10.0 mi NNW 10.4 mph - N/A   Clear
6:35 AM 44.6 °F 43.1 °F 5.0 °F 20% 30.05 in 10.0 mi North 3.5 mph - N/A   Clear
6:55 AM 46.4 °F 45.2 °F 3.2 °F 17% 30.06 in 10.0 mi NW 3.5 mph - N/A   Clear
7:15 AM 50.0 °F - 5.0 °F 16% 30.08 in 10.0 mi NNW 8.1 mph - N/A   Clear
7:35 AM 53.6 °F - 3.2 °F 13% 30.08 in 10.0 mi NNW 11.5 mph - N/A   Clear
7:55 AM 55.4 °F - 5.0 °F 13% 30.09 in 10.0 mi NNW 17.3 mph 21.9 mph N/A   Clear
8:15 AM 53.6 °F - 6.8 °F 15% 30.10 in 10.0 mi NNE 15.0 mph 28.8 mph N/A   Clear
8:35 AM 55.4 °F - 6.8 °F 14% 30.10 in 10.0 mi North 23.0 mph 26.5 mph N/A   Clear
8:55 AM 55.4 °F - 14.0 °F 20% 30.10 in 10.0 mi North 17.3 mph - N/A   Clear
9:15 AM 55.4 °F - 17.6 °F 23% 30.11 in 10.0 mi North 17.3 mph 21.9 mph N/A   Clear
9:35 AM 55.4 °F - 17.6 °F 23% 30.11 in 10.0 mi North 15.0 mph - N/A   Clear
9:55 AM 55.4 °F - 19.4 °F 25% 30.11 in 10.0 mi NNE 13.8 mph 17.3 mph N/A   Clear
10:15 AM 55.4 °F - 19.4 °F 25% 30.12 in 10.0 mi North 13.8 mph 18.4 mph N/A   Clear
10:35 AM 57.2 °F - 19.4 °F 23% 30.12 in 10.0 mi NNE 8.1 mph 18.4 mph N/A   Clear
10:55 AM 57.2 °F - 19.4 °F 23% 30.12 in 10.0 mi NNE 12.7 mph 16.1 mph N/A   Clear
11:15 AM 59.0 °F - 19.4 °F 22% 30.12 in 10.0 mi NE 9.2 mph - N/A   Clear
11:35 AM 59.0 °F - 19.4 °F 22% 30.11 in 10.0 mi North 6.9 mph - N/A   Clear
11:55 AM 59.0 °F - 19.4 °F 22% 30.11 in 10.0 mi NE 8.1 mph 16.1 mph N/A   Clear
12:15 PM 59.0 °F - 17.6 °F 20% 30.10 in 10.0 mi NNW 8.1 mph 18.4 mph N/A   Clear
12:35 PM 59.0 °F - 17.6 °F 20% 30.10 in 10.0 mi Calm Calm - N/A   Clear
12:55 PM 62.6 °F - 14.0 °F 15% 30.09 in 10.0 mi NE 10.4 mph 17.3 mph N/A   Clear
1:15 PM 62.6 °F - 15.8 °F 16% 30.08 in 10.0 mi NNW 8.1 mph 18.4 mph N/A   Clear
1:35 PM 62.6 °F - 15.8 °F 16% 30.08 in 10.0 mi NW 10.4 mph - N/A   Clear
1:55 PM 62.6 °F - 15.8 °F 16% 30.07 in 10.0 mi SSE 8.1 mph - N/A   Clear
2:15 PM 62.6 °F - 15.8 °F 16% 30.07 in 10.0 mi NNE 11.5 mph - N/A   Clear
2:35 PM 64.4 °F - 15.8 °F 15% 30.06 in 10.0 mi NNE 10.4 mph 18.4 mph N/A   Clear
2:55 PM 62.6 °F - 14.0 °F 15% 30.06 in 10.0 mi NE 9.2 mph - N/A   Clear
3:15 PM 64.4 °F - 14.0 °F 14% 30.05 in 10.0 mi North 11.5 mph 18.4 mph N/A   Clear
3:35 PM 64.4 °F - 12.2 °F 13% 30.04 in 10.0 mi ENE 12.7 mph 17.3 mph N/A   Clear
4:35 PM 64.4 °F - 12.2 °F 13% 30.04 in 10.0 mi ENE 8.1 mph 19.6 mph N/A   Clear
4:55 PM 62.6 °F - 10.4 °F 13% 30.04 in 10.0 mi Calm Calm - N/A   Clear
5:15 PM 64.4 °F - 10.4 °F 12% 30.04 in 10.0 mi NNE 10.4 mph 16.1 mph N/A   Clear
5:35 PM 64.4 °F - 8.6 °F 11% 30.04 in 10.0 mi North 4.6 mph - N/A   Clear
5:55 PM 64.4 °F - 8.6 °F 11% 30.04 in 10.0 mi North 5.8 mph - N/A   Clear
6:15 PM 64.4 °F - 8.6 °F 11% 30.04 in 10.0 mi East 8.1 mph 18.4 mph N/A   Clear
6:35 PM 64.4 °F - 8.6 °F 11% 30.04 in 10.0 mi North 6.9 mph - N/A   Clear
6:55 PM 64.4 °F - 8.6 °F 11% 30.04 in 10.0 mi NNE 8.1 mph - N/A   Clear
7:15 PM 62.6 °F - 8.6 °F 12% 30.04 in 10.0 mi NE 6.9 mph - N/A   Clear
7:35 PM 60.8 °F - 10.4 °F 14% 30.05 in 10.0 mi NNE 4.6 mph - N/A   Clear
8:35 PM 55.4 °F - 10.4 °F 17% 30.07 in 10.0 mi NNE 6.9 mph - N/A   Clear
8:55 PM 55.4 °F - 10.4 °F 17% 30.08 in 10.0 mi Calm Calm - N/A   Clear
9:15 PM 55.4 °F - 10.4 °F 17% 30.09 in 10.0 mi North 4.6 mph - N/A   Clear
9:35 PM 53.6 °F - 12.2 °F 19% 30.09 in 10.0 mi North 4.6 mph - N/A   Clear
9:55 PM 53.6 °F - 10.4 °F 18% 30.10 in 10.0 mi North 3.5 mph - N/A   Clear
10:15 PM 51.8 °F - 10.4 °F 19% 30.10 in 10.0 mi Calm Calm - N/A   Clear
10:35 PM 50.0 °F - 8.6 °F 19% 30.11 in 10.0 mi NE 3.5 mph - N/A   Clear
10:55 PM 50.0 °F - 8.6 °F 19% 30.11 in 10.0 mi Calm Calm - N/A   Clear
11:15 PM 48.2 °F - 8.6 °F 20% 30.12 in 10.0 mi Calm Calm - N/A   Clear
11:35 PM 48.2 °F - 8.6 °F 20% 30.12 in 10.0 mi Calm Calm - N/A   Clear
11:55 PM 48.2 °F - 8.6 °F 20% 30.13 in 10.0 mi Calm Calm - N/A   Clear